Regional Weather Roundup
Issued by NWS Cleveland, OH

Home | Current Version | Previous Version | Graphics & Text | Print | Product List | Glossary On
Versions: 1 2 3 4 5 6 7 8 9 10 11 12 13 14 15 16 17 18 19 20 21 22 23 24 25 26 27 28 29 30 31 32 33 34 35 36 37 38 39 40 41 42 43 44 45 46 47 48 49 50
985
ASUS41 KCLE 230610
RWRCLE
OHIO REGIONAL WEATHER ROUNDUP
NATIONAL WEATHER SERVICE WILMINGTON, OH
200 AM EDT FRI JUN 23 2017

NOTE: "FAIR" INDICATES FEW OR NO CLOUDS BELOW 12,000 FEET WITH NO
SIGNIFICANT WEATHER AND/OR OBSTRUCTIONS TO VISIBILITY.

OHZ001>008-015>018-024>027-034-035-043-044-230700-
   NORTHWEST OHIO

CITY           SKY/WX    TMP DP  RH WIND       PRES   REMARKS
DEFIANCE       CLOUDY    73  65  75 S12       29.78F
FINDLAY        CLOUDY    75  66  73 S15G24    29.79F
TOLEDO EXPRESS CLOUDY    74  67  78 SW9       29.77F
TOLEDO EXEC    CLOUDY    75  68  78 S12       29.79F
LIMA           CLOUDY    73  68  84 S12       29.81F
$$

OHZ009>014-019>023-028>033-038-089-230700-
   NORTHEAST OHIO

CITY           SKY/WX    TMP DP  RH WIND       PRES   REMARKS
CLE-HOPKINS    MOCLDY    76  66  71 S14       29.82F
CLE-LAKEFRONT  FAIR      76  65  68 S16G23    29.79F
CUY CO. ARPT   NOT AVBL
LORAIN-ELYRIA  FAIR      73  62  68 SW12      29.82F
ASHTABULA      FAIR      74  70  87 S12       29.82F
AKRON-CANTON   MOCLDY    74  66  76 S14       29.86F
WOOSTER        CLOUDY    73  65  75 S15G24    29.85F
MANSFIELD      MOCLDY    72  67  84 S15       29.84F
YOUNGSTOWN     FAIR      73  67  81 S8        29.86F
$$

OHZ042-051>053-060>062-070>072-077>081-230700-
  SOUTHWEST OHIO

CITY           SKY/WX    TMP DP  RH WIND       PRES   REMARKS
CINC-COVINGTON CLOUDY    72  71  97 S9        29.85F
CINC-LUNKEN    CLOUDY    71  50  47 S3        29.85F
HAMILTON       CLOUDY    72  71  97 S3        29.84F
DAYTON         LGT RAIN  70  68  93 S10       29.84F FOG
WRIGHT-PAT AFB LGT RAIN  70  70 100 S8        29.83F
DAYTON GENERAL LGT RAIN  70  69  97 S10       29.84F
WILMINGTON     CLOUDY    69  69 100 S8        29.85F
$$

OHZ036-037-039>041-045>050-054>059-063>069-073>076-082>088-230700-
  CENTRAL AND SOUTHEAST OHIO

CITY           SKY/WX    TMP DP  RH WIND       PRES   REMARKS
COLUMBUS       CLOUDY    72  70  93 S8        29.85F
OSU AIRPORT    CLOUDY    72  70  93 S9        29.85F
BOLTON FIELD   NOT AVBL
RICKENBACK AFB RAIN      69  69 100 S7        29.85F
NEWARK         MOCLDY    70  68  93 S8        29.85F
MARION         CLOUDY    72  66  81 S13       29.83F
LANCASTER      CLOUDY    70  69  97 SE6       29.87F
ZANESVILLE     LGT RAIN  71  68  90 S5        29.88F
NEW PHILLY     FAIR      74  67  78 S9        29.87F
$$




USA.gov is the U.S. government's official web portal to all federal, state and local government web resources and services.